IRIDIUM 57 (25273 NORAD) Tracking and Keplerian Element Data

This shows tracking and keplerian element data for the satellite.

Feedback or suggestion? Click here.




ElementValue
Catalog25273
NameIRIDIUM 57
Epoch Orbit40566
Epoch Day34.92352422
Epoch Year2025
RAAN201.0338
Inclination86.398
Eccentricity0.0002043
Argument of Perigee93.5666
Mean Anonmoly266.5764
Mean Motion14.35714742
Decay Rate7.41E-06
L11 25273U 98019B 25034.92352422 .00000741 00000+0 25005-3 0 9995
L22 25273 86.3980 201.0338 0002043 93.5666 266.5764 14.35714742405661



Live tracking and technical data element details for IRIDIUM 57 (NORAD 25273). IRIDIUM 57 can be tracked NOW for your location showing map with azimuth and elevation plus other details from your city location.







IsCatalogInMostPopularTable: catalog: 25273, numindb: 451
Update: records affected: 1



GetName: 25273 IRIDIUM 57

Hit Count: updated at: Sat, 24 May 2025 16:48:34 GMT